This is the latest recevied weather packets stored in our database for station/object IZ0VWB-3. If no packets are shown the sender has not sent any weather packets the latest 10 day(s).
| Time | Temp. | Humidity | Pressure | Rain* | Wind** | Luminosity | Snow |
|---|---|---|---|---|---|---|---|
| 1777822718 | 22.22° C | 50% | 1004.7 hPa | 0 mm | - | - | - |
| 1777822118 | 22.22° C | 50% | 1004.8 hPa | 0 mm | - | - | - |
| 1777821519 | 21.67° C | 51% | 1004.8 hPa | 0 mm | - | - | - |
| 1777820919 | 22.22° C | 50% | 1005 hPa | 0 mm | - | - | - |
| 1777820317 | 21.67° C | 52% | 1005 hPa | 0 mm | - | - | - |
| 1777819719 | 21.67° C | 53% | 1005.2 hPa | 0 mm | - | - | - |
| 1777819117 | 21.67° C | 53% | 1005.3 hPa | 0 mm | - | - | - |
| 1777818518 | 21.67° C | 52% | 1005.5 hPa | 0 mm | - | - | - |
| 1777817918 | 21.67° C | 52% | 1005.5 hPa | 0 mm | - | - | - |
| 1777817317 | 21.67° C | 52% | 1005.7 hPa | 0 mm | - | - | - |
| 1777816717 | 22.78° C | 49% | 1005.8 hPa | 0 mm | - | - | - |
| 1777816119 | 22.22° C | 48% | 1005.8 hPa | 0 mm | - | - | - |
| 1777815517 | 22.22° C | 48% | 1006 hPa | 0 mm | - | - | - |
| 1777814918 | 22.78° C | 47% | 1006 hPa | 0 mm | - | - | - |
| 1777814318 | 23.33° C | 46% | 1006.1 hPa | 0 mm | - | - | - |
| 1777813746 | 23.33° C | 44% | 1006.2 hPa | 0 mm | - | - | - |
| 1777813147 | 23.33° C | 45% | 1006.2 hPa | 0 mm | - | - | - |
| 1777812546 | 23.33° C | 45% | 1006.3 hPa | 0 mm | - | - | - |
| 1777811946 | 22.78° C | 47% | 1006.4 hPa | 0 mm | - | - | - |
| 1777811346 | 22.78° C | 46% | 1006.5 hPa | 0 mm | - | - | - |
| 1777810747 | 22.78° C | 45% | 1006.6 hPa | 0 mm | - | - | - |
| 1777810146 | 22.22° C | 45% | 1006.5 hPa | 0 mm | - | - | - |
| 1777809547 | 22.78° C | 45% | 1006.5 hPa | 0 mm | - | - | - |
| 1777808944 | 22.78° C | 46% | 1006.5 hPa | 0 mm | - | - | - |
| 1777808345 | 22.22° C | 45% | 1006.5 hPa | 0 mm | - | - | - |
* Rain latest hour (hover to see other rain measurements)
** Current wind speed in m/s (hover to see current wind gust speed)